Location: Ch�risy
(50.2331°N, 2.9131°E)
Time: 01:43:09
(UTC+00:00)

MOS 1 Rocket - Pass Details

Date: 17 January 2021
Orbit: 614 x 830 km, 97.4° (Epoch: 28 February)

Event Time Altitude Azimuth Distance (km) Brightness Sun altitude
Exits shadow 17:52:32 - 22° (NNE) 2,096 5.4 -14.7°
Reaches altitude 10° 17:52:41 10° 23° (NNE) 2,034 5.4 -14.8°
Maximum altitude 17:56:57 48° 98° (E) 815 3.3 -15.4°
Drops below altitude 10° 18:01:05 10° 174° (S) 1,972 5.7 -16.1°
Sets 18:03:18 0° 180° (S) 2,871 6.6 -16.4°
